Location: Waco, TX
(31.5481°N, 97.1672°W)
Time: 07:18:36
(UTC-05:00)

ISS - Visible Passes

Search period start: 01 October 2022 00:00
Search period end: 11 October 2022 00:00
Orbit: 414 x 417 km, 51.6° (Epoch: 01 October)

Date Brightness Start Highest point End Pass type
(mag) Time Alt. Az. Time Alt. Az. Time Alt. Az.
01 Oct -0.7 21:20:07 10° NNW 21:20:23 12° NNW 21:20:23 12° NNW visible
02 Oct -1.9 20:31:43 10° NNW 20:33:41 19° NNE 20:33:41 19° NNE visible
03 Oct -1.5 19:43:42 10° N 19:45:15 13° NNE 19:46:48 10° ENE visible
03 Oct -1.0 21:18:56 10° NW 21:19:57 18° NW 21:19:57 18° NW visible
04 Oct -3.8 20:30:04 10° NW 20:33:23 61° NE 20:33:27 61° NE visible
05 Oct -2.8 19:41:24 10° NNW 19:44:25 31° NE 19:47:04 12° ESE visible
05 Oct -0.8 21:18:39 10° W 21:19:59 15° WSW 21:19:59 15° WSW visible
06 Oct -2.3 20:29:03 10° WNW 20:32:07 34° SW 20:33:48 20° S visible
07 Oct -3.6 19:39:53 10° NW 19:43:13 74° SW 19:46:32 10° SE visible
09 Oct -1.0 19:39:11 10° WNW 19:41:41 20° SW 19:44:11 10° S visible
